[[{"header":{"parameterUnit":"m.s-1","parameterCategory":1,"la1":30.2991,"la2":30.254,"lo1":-89.0895,"lo2":-89.0444,"dy":0.0017,"dx":0.0017,"nx":28,"ny":28,"refTime":"2025-03-27T03:00:00:Z","depth":0,"parameterNumber":2,"parameterNumberName":"U-component_of_WINDS"},"data":[0,0,0,0,0,0,0,0,0,0,0,0,0,0,0,0,0,0,0,0,0,0,0,0,0,0,0,0,0,0,0,0,0,0,0,0,0,0,0,0,0,0,0,0,0,0,0,0,0,0,0,0,0,0,0,0,0,0,-3.0932,-3.0933,0,-3.1061,-3.1063,-3.1064,-3.1093,-3.1092,-3.1091,-3.109,-3.122,-3.1224,-3.1228,0,0,0,0,0,0,0,0,0,0,0,0,0,-3.0707,-3.0711,-3.0932,-3.0934,-3.0935,-3.1061,-3.1063,-3.1065,-3.1093,-3.1092,-3.1091,-3.109,-3.1218,-3.1223,-3.1228,0,0,0,0,0,0,0,0,0,0,0,0,0,-3.0817,-3.0712,-3.0932,-3.0965,-3.0969,-3.1061,-3.1063,-3.1065,-3.1094,-3.1092,-3.1091,-3.109,-3.1216,-3.1223,-3.1229,-3.1296,0,0,-3.1249,-3.1251,0,0,0,0,0,0,0,0,-3.0811,-3.0825,-3.0958,-3.0963,-3.0968,-3.106,-3.1031,-3.1142,-3.1094,-3.1046,-3.109,-3.1089,-3.1167,-3.1178,-3.1205,-3.1302,-3.1307,-3.1249,-3.1253,-3.1256,-3.1258,0,0,0,0,0,0,0,-3.0803,-3.082,-3.0983,-3.096,-3.0966,-3.0972,-3.0986,-3.1052,-3.1113,-3.105,-3.1053,-3.1068,-3.1169,-3.1198,-3.1208,-3.1309,-3.1249,-3.1255,-3.1259,-3.1261,-3.1469,-3.1471,0,0,0,0,0,0,-3.079,-3.0814,-3.0979,-3.0987,-3.0884,-3.0977,-3.0993,-3.1032,-3.1112,-3.1123,-3.1069,-3.1069,-3.1188,-3.12,-3.1213,-3.1298,-3.1256,-3.1262,-3.1265,-3.1468,-3.147,-3.1471,0,0,0,0,0,0,-3.0785,-3.0805,-3.0974,-3.0901,-3.0923,-3.0983,-3.1025,-3.1035,-3.1064,-3.1126,-3.1137,-3.1088,-3.1188,-3.1204,-3.1276,-3.1303,-3.1265,-3.1271,-3.1466,-3.1468,-3.1471,-3.1468,0,0,0,0,0,0,-3.0779,-3.0803,-3.083,-3.0901,-3.0927,-3.1035,-3.1027,-3.1038,-3.1075,-3.1076,-3.1147,-3.1157,-3.1188,-3.1266,-3.1282,-3.1311,-3.1276,-3.1464,-3.1467,-3.147,-3.1466,-3.147,-3.1474,0,0,0,0,0,-3.0771,-3.0823,-3.0831,-3.0851,-3.0962,-3.1037,-3.1051,-3.1087,-3.1077,-3.1105,-3.1145,-3.1155,-3.1297,-3.1273,-3.1291,-3.1323,-3.1462,-3.1466,-3.147,-3.1464,-3.1469,-3.1473,0,0,0,0,0,0,-3.0751,-3.0833,-3.0843,-3.0919,-3.0971,-3.1042,-3.1077,-3.1091,-3.1145,-3.1144,-3.1185,-3.12,-3.127,-3.1303,-3.1275,-3.1392,-3.1379,-3.1387,-3.1368,-3.1374,-3.1378,-3.1369,-3.1281,0,0,0,0,0,-3.0756,-3.0811,-3.0879,-3.094,-3.0966,-3.1017,-3.1051,-3.1074,-3.1129,-3.115,-3.1196,-3.1247,-3.1304,-3.134,-3.1396,-3.147,-3.1486,-3.1501,-3.1504,-3.1507,-3.1514,-3.1557,-3.1565,-3.1484,-3.1484,-3.1484,0,0,-3.0766,-3.0817,-3.0849,-3.0937,-3.098,-3.1036,-3.1035,-3.1094,-3.1136,-3.1159,-3.1231,-3.1265,-3.1326,-3.14,-3.1435,-3.143,-3.154,-3.1512,-3.1514,-3.1519,-3.1562,-3.1569,-3.1576,-3.1486,-3.1486,-3.1486,0,0,-3.0813,-3.0857,-3.0914,-3.0958,-3.1023,-3.1057,-3.107,-3.1139,-3.1164,-3.1236,-3.1255,-3.1305,-3.1401,-3.1444,-3.1478,-3.1543,-3.1554,-3.1559,-3.158,-3.1622,-3.1628,-3.1634,-3.1658,-3.1667,-3.1565,-3.1565,-3.1565,0,-3.0818,-3.0904,-3.0941,-3.1001,-3.1039,-3.1063,-3.1121,-3.1161,-3.124,-3.1266,-3.1259,-3.1381,-3.1424,-3.1509,-3.1525,-3.1551,-3.1568,-3.1552,-3.1624,-3.163,-3.1636,-3.166,-3.1669,-3.1565,-3.1565,-3.1565,-3.1565,0,-3.0907,-3.0966,-3.1004,-3.1082,-3.1124,-3.1182,-3.1228,-3.1266,-3.1285,-3.1319,-3.1393,-3.1445,-3.1512,-3.1533,-3.1551,-3.1621,-3.1616,-3.1616,-3.1604,-3.1644,-3.1667,-3.1676,-3.1566,-3.1566,-3.1566,-3.1566,0,0,-3.0946,-3.1045,-3.1059,-3.1095,-3.1169,-3.1215,-3.1274,-3.1341,-3.1374,-3.1427,-3.1478,-3.1559,-3.156,-3.1599,-3.1622,-3.1658,-3.1708,-3.1654,-3.1656,-3.1664,-3.1789,-3.1791,-3.18,-3.1715,-3.1717,-3.1719,-3.1785,0,-3.1005,-3.1113,-3.1148,-3.1237,-3.1293,-3.1317,-3.1368,-3.1419,-3.1452,-3.1504,-3.154,-3.1598,-3.1593,-3.1617,-3.1654,-3.1694,-3.1734,-3.1689,-3.1763,-3.1766,-3.175,-3.1812,-3.1814,-3.1874,-3.1794,-3.1796,-3.1797,0,-3.1087,-3.1145,-3.124,-3.1308,-3.1333,-3.1379,-3.1444,-3.1492,-3.155,-3.1571,-3.1615,-3.1636,-3.1698,-3.1681,-3.1767,-3.1736,-3.1768,-3.1792,-3.1795,-3.1805,-3.1785,-3.1825,-3.1894,-3.1903,-3.1811,-3.181,-3.1809,0,-3.1109,-3.121,-3.128,-3.131,-3.1391,-3.1423,-3.1458,-3.1514,-3.1552,-3.1608,-3.1634,-3.1695,-3.1729,-3.1776,-3.1812,-3.1796,-3.1896,-3.1881,-3.1916,-3.1915,-3.1937,-3.1936,-3.2013,-3.1954,-3.1954,-3.1954,-3.1954,0,-3.1172,-3.123,-3.1292,-3.1335,-3.1401,-3.144,-3.1503,-3.1539,-3.1589,-3.164,-3.1663,-3.171,-3.1754,-3.1807,-3.1835,-3.1903,-3.1918,-3.1937,-3.1944,-3.1936,-3.1934,-3.1959,-3.1956,-3.1957,-3.1956,-3.1956,-3.1955,0,-3.1208,-3.1252,-3.1331,-3.1401,-3.142,-3.1466,-3.1526,-3.1568,-3.1602,-3.1666,-3.1683,-3.1737,-3.18,-3.184,-3.192,-3.1939,-3.2014,-3.2019,-3.1995,-3.1999,-3.2032,-3.2029,-3.213,-3.2146,-3.2074,-3.2075,-3.2076,0,-3.1246,-3.1292,-3.1368,-3.1404,-3.144,-3.1497,-3.1537,-3.1577,-3.1617,-3.1687,-3.1721,-3.1786,-3.184,-3.194,-3.1985,-3.2046,-3.2054,-3.2085,-3.2063,-3.2054,-3.2057,-3.2054,-3.206,-3.2089,-3.209,-3.209,-3.2091,0,-3.131,-3.133,-3.1387,-3.1452,-3.1499,-3.1551,-3.1604,-3.1632,-3.1681,-3.1724,-3.179,-3.1832,-3.1914,-3.1979,-3.2044,-3.2079,-3.2093,-3.2097,-3.2109,-3.2102,-3.2087,-3.2097,-3.2007,-3.2095,-3.2094,-3.2094,-3.2094,-3.2094,-3.135,-3.1392,-3.1453,-3.1516,-3.156,-3.1608,-3.1653,-3.1693,-3.1749,-3.182,-3.184,-3.1908,-3.1965,-3.2055,-3.2091,-3.2145,-3.2141,-3.2157,-3.2162,-3.2166,-3.2167,-3.2077,-3.2156,-3.2156,-3.2156,-3.2156,-3.2156,0,-3.1416,-3.1457,-3.1514,-3.1588,-3.1638,-3.1647,-3.1706,-3.1747,-3.1807,-3.1859,-3.1913,-3.1988,-3.2051,-3.2101,-3.2165,-3.2199,-3.2207,-3.2214,-3.2213,-3.2221,-3.2166,-3.215,-3.2207,-3.2207,-3.2207,-3.2207,-3.2207,-3.2207,-3.1457,-3.1529,-3.1556,-3.165,-3.169,-3.1759,-3.1792,-3.1837,-3.1879,-3.1963,-3.2016,-3.2048,-3.21,-3.2168,-3.2226,-3.2239,-3.2262,-3.2269,-3.2283,-3.2231,-3.2225,-3.222,-3.2206,-3.2273,-3.2273,-3.2335,-3.2335,-3.2336]},{"header":{"parameterUnit":"m.s-1","parameterCategory":1,"la1":30.2991,"la2":30.254,"lo1":-89.0895,"lo2":-89.0444,"dy":0.0017,"dx":0.0017,"nx":28,"ny":28,"refTime":"2025-03-27T03:00:00:Z","depth":0,"parameterNumber":3,"parameterNumberName":"V-component_of_WINDS"},"data":[0,0,0,0,0,0,0,0,0,0,0,0,0,0,0,0,0,0,0,0,0,0,0,0,0,0,0,0,0,0,0,0,0,0,0,0,0,0,0,0,0,0,0,0,0,0,0,0,0,0,0,0,0,0,0,0,0,0,-0.3776,-0.3775,0,-0.3648,-0.3647,-0.3645,-0.3517,-0.3516,-0.3514,-0.3512,-0.338,-0.3378,-0.3376,0,0,0,0,0,0,0,0,0,0,0,0,0,-0.3909,-0.3908,-0.3777,-0.3775,-0.3773,-0.3648,-0.3647,-0.3645,-0.3518,-0.3516,-0.3513,-0.3512,-0.3381,-0.3378,-0.3376,0,0,0,0,0,0,0,0,0,0,0,0,0,-0.3823,-0.3907,-0.3777,-0.3695,-0.3686,-0.3649,-0.3646,-0.3644,-0.3518,-0.3515,-0.3513,-0.3511,-0.3381,-0.3379,-0.3376,-0.3409,0,0,-0.3367,-0.3366,0,0,0,0,0,0,0,0,-0.3829,-0.3819,-0.3708,-0.37,-0.3691,-0.3596,-0.3645,-0.3565,-0.3519,-0.3582,-0.3512,-0.3509,-0.3454,-0.3445,-0.3426,-0.3402,-0.3397,-0.3367,-0.3365,-0.3364,-0.3363,0,0,0,0,0,0,0,-0.3835,-0.3823,-0.3726,-0.3707,-0.3696,-0.3664,-0.3649,-0.3629,-0.3534,-0.3576,-0.3567,-0.3553,-0.3449,-0.343,-0.3422,-0.3395,-0.3367,-0.3364,-0.3362,-0.3361,-0.3389,-0.3392,0,0,0,0,0,0,-0.3853,-0.3829,-0.373,-0.3722,-0.3755,-0.3663,-0.3647,-0.3629,-0.3534,-0.3517,-0.3556,-0.3548,-0.3436,-0.3426,-0.3417,-0.3448,-0.3364,-0.3361,-0.3359,-0.3387,-0.339,-0.3393,0,0,0,0,0,0,-0.3857,-0.3846,-0.3735,-0.3773,-0.3756,-0.3664,-0.3645,-0.3628,-0.3609,-0.3518,-0.35,-0.3554,-0.3433,-0.3421,-0.3411,-0.3442,-0.336,-0.3357,-0.3384,-0.3388,-0.3391,-0.3512,0,0,0,0,0,0,-0.3861,-0.3848,-0.386,-0.3774,-0.3755,-0.3732,-0.3647,-0.3627,-0.3604,-0.3593,-0.3512,-0.3496,-0.343,-0.3416,-0.3409,-0.3437,-0.3355,-0.3381,-0.3386,-0.339,-0.3505,-0.352,-0.3532,0,0,0,0,0,-0.3866,-0.3899,-0.3861,-0.385,-0.3768,-0.3734,-0.3723,-0.3648,-0.3607,-0.3618,-0.3559,-0.3498,-0.344,-0.3417,-0.3406,-0.3434,-0.3379,-0.3384,-0.339,-0.3499,-0.3517,-0.3532,0,0,0,0,0,0,-0.399,-0.3886,-0.3843,-0.3849,-0.3802,-0.3713,-0.3724,-0.3669,-0.3632,-0.3623,-0.353,-0.3513,-0.3514,-0.3472,-0.3448,-0.346,-0.3401,-0.3405,-0.3487,-0.3503,-0.3516,-0.3526,-0.3352,0,0,0,0,0,-0.4019,-0.4,-0.391,-0.3924,-0.3902,-0.3818,-0.38,-0.3746,-0.3693,-0.3672,-0.3613,-0.3563,-0.3533,-0.3516,-0.3484,-0.3498,-0.3478,-0.3512,-0.3526,-0.3537,-0.3542,-0.3545,-0.3559,-0.3411,-0.3411,-0.3411,0,0,-0.4076,-0.4017,-0.4011,-0.3948,-0.3904,-0.3887,-0.3802,-0.3787,-0.3773,-0.367,-0.3657,-0.3612,-0.355,-0.3552,-0.355,-0.3518,-0.3578,-0.3544,-0.3554,-0.3552,-0.3552,-0.3567,-0.3579,-0.3415,-0.3414,-0.3414,0,0,-0.4173,-0.4127,-0.4133,-0.4091,-0.4027,-0.397,-0.3972,-0.3891,-0.3857,-0.3843,-0.3764,-0.3746,-0.3697,-0.3656,-0.3629,-0.3709,-0.365,-0.3701,-0.3771,-0.3776,-0.3787,-0.3797,-0.3825,-0.3836,-0.3705,-0.3706,-0.3706,0,-0.4253,-0.4224,-0.4143,-0.4133,-0.4107,-0.4012,-0.4017,-0.3981,-0.3909,-0.3893,-0.3858,-0.3794,-0.3745,-0.3736,-0.3756,-0.3737,-0.3735,-0.371,-0.3792,-0.3801,-0.3809,-0.3835,-0.3846,-0.3712,-0.3711,-0.3711,-0.371,0,-0.4325,-0.4306,-0.4319,-0.4252,-0.4227,-0.4225,-0.4143,-0.4127,-0.4075,-0.4022,-0.4008,-0.3947,-0.39,-0.3893,-0.3843,-0.3877,-0.3859,-0.381,-0.3748,-0.3831,-0.3854,-0.3863,-0.3721,-0.3719,-0.3717,-0.3715,0,0,-0.4497,-0.4385,-0.4391,-0.4359,-0.4281,-0.4264,-0.4257,-0.4211,-0.4199,-0.4153,-0.4144,-0.4104,-0.4057,-0.4027,-0.397,-0.3974,-0.4041,-0.3924,-0.3921,-0.3947,-0.4074,-0.4111,-0.4124,-0.4001,-0.4003,-0.4004,-0.4079,0,-0.458,-0.4562,-0.4488,-0.4492,-0.4473,-0.4383,-0.4376,-0.4327,-0.4277,-0.4253,-0.4197,-0.417,-0.4111,-0.4092,-0.4092,-0.4033,-0.4065,-0.4026,-0.3992,-0.3991,-0.401,-0.4136,-0.4176,-0.4249,-0.4087,-0.4088,-0.4089,0,-0.4674,-0.4634,-0.4636,-0.4557,-0.4546,-0.4542,-0.4493,-0.4472,-0.4414,-0.4377,-0.4342,-0.4279,-0.4265,-0.4208,-0.4187,-0.4163,-0.4144,-0.4113,-0.4114,-0.4108,-0.4046,-0.4133,-0.4271,-0.4282,-0.4103,-0.4101,-0.4101,0,-0.4798,-0.4745,-0.4738,-0.4714,-0.4622,-0.4621,-0.4583,-0.4522,-0.4499,-0.4456,-0.444,-0.4397,-0.4373,-0.4341,-0.4267,-0.4232,-0.4254,-0.4191,-0.4223,-0.4225,-0.4232,-0.4232,-0.4369,-0.4221,-0.422,-0.422,-0.422,0,-0.4898,-0.4903,-0.4793,-0.479,-0.4792,-0.4707,-0.4711,-0.4664,-0.461,-0.4595,-0.4514,-0.4502,-0.4405,-0.4381,-0.4323,-0.4314,-0.4304,-0.4273,-0.4258,-0.4281,-0.4285,-0.4267,-0.426,-0.4223,-0.4222,-0.4222,-0.4221,0,-0.5038,-0.4965,-0.4952,-0.4866,-0.4844,-0.485,-0.4775,-0.4768,-0.4713,-0.4695,-0.4685,-0.4599,-0.4566,-0.4489,-0.4436,-0.4397,-0.4403,-0.4375,-0.4423,-0.4414,-0.445,-0.4447,-0.4579,-0.4592,-0.4437,-0.4438,-0.444,0,-0.5107,-0.5108,-0.5022,-0.5007,-0.4972,-0.4947,-0.4923,-0.4839,-0.4817,-0.4751,-0.4751,-0.4712,-0.4677,-0.4629,-0.4561,-0.4519,-0.4489,-0.4538,-0.4483,-0.4505,-0.449,-0.4491,-0.449,-0.4551,-0.4553,-0.4555,-0.4556,0,-0.5236,-0.52,-0.5169,-0.5125,-0.5099,-0.506,-0.5017,-0.5008,-0.4913,-0.4893,-0.4859,-0.4831,-0.4777,-0.4739,-0.4687,-0.4646,-0.4586,-0.4574,-0.4579,-0.4603,-0.463,-0.4615,-0.4457,-0.4572,-0.457,-0.4569,-0.4568,-0.4568,-0.5341,-0.5338,-0.5278,-0.5245,-0.5204,-0.5165,-0.5154,-0.5097,-0.5068,-0.5017,-0.4969,-0.494,-0.488,-0.4804,-0.4767,-0.4742,-0.4711,-0.4719,-0.4721,-0.4724,-0.4734,-0.4635,-0.4733,-0.4732,-0.4732,-0.4731,-0.4731,0,-0.5466,-0.5423,-0.5394,-0.5336,-0.5311,-0.5256,-0.5205,-0.5187,-0.5163,-0.5112,-0.5079,-0.5039,-0.5002,-0.4931,-0.4887,-0.4881,-0.4852,-0.4872,-0.4871,-0.4863,-0.4764,-0.4764,-0.4896,-0.4896,-0.4896,-0.4896,-0.4896,-0.4896,-0.5528,-0.552,-0.5476,-0.5446,-0.5402,-0.5373,-0.5348,-0.5312,-0.5271,-0.5231,-0.52,-0.5154,-0.5094,-0.5045,-0.5008,-0.4988,-0.4976,-0.5005,-0.4976,-0.4886,-0.487,-0.4855,-0.4854,-0.5003,-0.5003,-0.5076,-0.5077,-0.5078]}]]